Weather History for KFMM - March, 2013

Change the Weather History Date:

Friday, March 1, 2013

  Actual Average (KAKO) Record (KAKO)
Temperature  
Mean Temperature 35 °F 35 °F  
Max Temperature 46 °F 48 °F 80 °F (1941)
Min Temperature 24 °F 23 °F -9 °F (1947)
Degree Days  
Heating Degree Days 30    
Month to date heating degree days  
Cooling Degree Days 0    
Month to date cooling degree days  
Moisture  
Dew Point 22 °F    
Average Humidity 60    
Maximum Humidity 82    
Minimum Humidity 35    
Precipitation  
Precipitation 0.00 in 0.02 in 0.12 in (1943)
Month to date precipitation 0.02  
Year to date precipitation 0.76  
Sea Level Pressure  
Sea Level Pressure 30.27 in    
Wind  
Wind Speed 13 mph (NW)    
Max Wind Speed 18 mph    
Max Gust Speed 24 mph    
Visibility 10 miles    
Events      
T = Trace of Precipitation, MM = Missing Value Source: NWS Daily Summary

Daily Weather History Graph

Daily Weather History Graph

Search for Another Location

Airport or City:

Trip Planner

Search our weather history database for the weather conditions in past years. The results will help you decide how hot, cold, wet, or windy it might be!

Date:

Astronomy

Mar. 01, 2013 Rise Set
Actual Time 6:28 AM MST 5:47 PM MST
Civil Twilight 6:01 AM MST 6:14 PM MST
Nautical Twilight 5:29 AM MST 6:46 PM MST
Astronomical Twilight 4:58 AM MST 7:17 PM MST
Moon 10:24 PM MST (3/1) 8:15 AM MST (3/1)
Length of Visible Light 12h 13m
Length of Day
11h 18m
Waning Gibbous, 83% of the Moon is Illuminated
Mar 1
Waning Gibbous
Mar 4
Last Quarter
Mar 11
New
Mar 19
First Quarter
Mar 27
Full

Hourly Weather History & Observations

Time (MST) Temp. Windchill Dew Point Humidity Pressure Visibility Wind Dir Wind Speed Gust Speed Precip Events Conditions
12:15 AM 28.9 °F 16.5 °F 19.4 °F 68% 30.24 in 10.0 mi NNW 18.4 mph 24.2 mph N/A   Clear
12:35 AM 28.0 °F 17.0 °F 19.2 °F 70% 30.24 in 10.0 mi NNW 13.8 mph - N/A   Clear
1:15 AM 28.8 °F 16.2 °F 18.0 °F 64% 30.24 in 10.0 mi NNW 18.4 mph - N/A   Clear
1:35 AM 28.0 °F 16.5 °F 18.0 °F 66% 30.25 in 10.0 mi North 15.0 mph - N/A   Clear
1:55 AM 26.6 °F 14.7 °F 17.6 °F 69% 30.25 in 10.0 mi NNW 15.0 mph - N/A   Clear
2:15 AM 26.4 °F 15.0 °F 17.6 °F 69% 30.24 in 10.0 mi NNW 13.8 mph - N/A   Clear
2:55 AM 24.4 °F 13.0 °F 16.7 °F 72% 30.23 in 10.0 mi North 12.7 mph - N/A   Clear
3:15 AM 24.6 °F 11.7 °F 16.7 °F 72% 30.23 in 10.0 mi NNW 16.1 mph - N/A   Clear
3:35 AM 25.5 °F 13.3 °F 16.7 °F 69% 30.23 in 10.0 mi NNW 15.0 mph - N/A   Clear
3:55 AM 25.2 °F 13.9 °F 16.7 °F 70% 30.23 in 10.0 mi NNW 12.7 mph - N/A   Clear
4:15 AM 25.0 °F 13.6 °F 16.7 °F 71% 30.24 in 10.0 mi NNW 12.7 mph - N/A   Clear
4:35 AM 25.3 °F 14.7 °F 16.3 °F 69% 30.25 in 10.0 mi NNW 11.5 mph - N/A   Clear
5:15 AM 25.9 °F 13.8 °F 16.2 °F 67% 30.25 in 10.0 mi NNW 15.0 mph - N/A   Clear
5:35 AM 25.5 °F 13.8 °F 15.8 °F 67% 30.26 in 10.0 mi NNW 13.8 mph - N/A   Clear
5:55 AM 27.3 °F 14.4 °F 16.7 °F 64% 30.25 in 10.0 mi NNW 18.4 mph - N/A   Clear
6:15 AM 27.5 °F 15.4 °F 17.1 °F 65% 30.25 in 10.0 mi NW 16.1 mph - N/A   Clear
6:35 AM 27.9 °F 16.3 °F 17.1 °F 64% 30.25 in 10.0 mi NW 15.0 mph - N/A   Clear
6:55 AM 29.5 °F 17.2 °F 17.6 °F 61% 30.26 in 10.0 mi NW 18.4 mph - N/A   Clear
7:15 AM 30.4 °F 18.7 °F 17.8 °F 60% 30.27 in 10.0 mi NW 17.3 mph 21.9 mph N/A   Clear
7:35 AM 31.5 °F 19.8 °F 18.5 °F 59% 30.28 in 10.0 mi NW 18.4 mph - N/A   Scattered Clouds
7:55 AM 32.0 °F 20.5 °F 18.5 °F 58% 30.29 in 10.0 mi NW 18.4 mph - N/A   Mostly Cloudy
8:15 AM 32.7 °F 21.8 °F 18.5 °F 56% 30.29 in 10.0 mi NW 17.3 mph - N/A   Mostly Cloudy
8:35 AM 33.6 °F 22.9 °F 18.3 °F 54% 30.29 in 10.0 mi NW 17.3 mph - N/A   Overcast
8:55 AM 35.4 °F 25.6 °F 19.0 °F 51% 30.29 in 10.0 mi NNW 16.1 mph - N/A   Overcast
9:15 AM 37.4 °F 29.8 °F 19.2 °F 48% 30.29 in 10.0 mi NNW 11.5 mph - N/A   Overcast
9:35 AM 38.7 °F 30.5 °F 20.3 °F 48% 30.30 in 10.0 mi NNW 13.8 mph - N/A   Overcast
9:55 AM 41.0 °F 32.8 °F 19.9 °F 43% 30.29 in 10.0 mi NNW 16.1 mph - N/A   Overcast
10:15 AM 41.2 °F 32.4 °F 19.9 °F 43% 30.30 in 10.0 mi NNW 18.4 mph - N/A   Mostly Cloudy
10:35 AM 43.0 °F 35.1 °F 19.0 °F 38% 30.30 in 10.0 mi NNW 17.3 mph 21.9 mph N/A   Scattered Clouds
10:55 AM 42.8 °F 35.4 °F 19.9 °F 40% 30.30 in 10.0 mi NNW 15.0 mph 21.9 mph N/A   Scattered Clouds
11:15 AM 43.3 °F 35.2 °F 20.5 °F 40% 30.30 in 10.0 mi NNW 18.4 mph - N/A   Scattered Clouds
11:35 AM 44.4 °F 37.2 °F 19.6 °F 37% 30.29 in 10.0 mi NNW 16.1 mph 23.0 mph N/A   Scattered Clouds
11:55 AM 45.5 °F 38.6 °F 19.8 °F 36% 30.29 in 10.0 mi North 16.1 mph 23.0 mph N/A   Mostly Cloudy
12:15 PM 43.5 °F 36.7 °F 20.3 °F 40% 30.28 in 10.0 mi North 13.8 mph 19.6 mph N/A   Overcast
12:35 PM 46.4 °F 40.4 °F 19.8 °F 35% 30.26 in 10.0 mi North 13.8 mph - N/A   Mostly Cloudy
12:55 PM 45.9 °F 39.1 °F 19.4 °F 35% 30.25 in 10.0 mi North 16.1 mph - N/A   Mostly Cloudy
1:15 PM 45.3 °F 38.1 °F 20.3 °F 37% 30.24 in 10.0 mi North 17.3 mph - N/A   Overcast
1:35 PM 43.9 °F 37.2 °F 22.5 °F 43% 30.24 in 10.0 mi North 13.8 mph - N/A   Mostly Cloudy
1:55 PM 44.1 °F 38.6 °F 22.5 °F 42% 30.24 in 10.0 mi NNW 10.4 mph - N/A   Overcast
2:15 PM 43.7 °F 38.1 °F 23.5 °F 45% 30.24 in 10.0 mi NNW 10.4 mph - N/A   Overcast
2:35 PM 43.3 °F 38.6 °F 23.9 °F 46% 30.24 in 10.0 mi North 8.1 mph - N/A   Overcast
2:55 PM 43.0 °F 37.7 °F 23.4 °F 46% 30.24 in 10.0 mi NNW 9.2 mph - N/A   Overcast
3:15 PM 42.3 °F 36.8 °F 22.3 °F 45% 30.25 in 10.0 mi North 9.2 mph - N/A   Overcast
3:35 PM 41.9 °F 37.5 °F 23.7 °F 49% 30.26 in 10.0 mi NNW 6.9 mph - N/A   Overcast
3:55 PM 41.5 °F 37.8 °F 24.8 °F 51% 30.26 in 10.0 mi North 5.8 mph - N/A   Overcast
4:15 PM 41.0 °F 39.0 °F 25.0 °F 53% 30.26 in 10.0 mi NNE 3.5 mph - N/A   Overcast
4:55 PM 40.6 °F 37.5 °F 27.1 °F 59% 30.28 in 10.0 mi WNW 4.6 mph - N/A   Overcast
5:15 PM 39.2 °F 35.0 °F 27.5 °F 63% 30.28 in 10.0 mi WNW 5.8 mph - N/A   Overcast
5:35 PM 37.8 °F 33.3 °F 28.2 °F 68% 30.29 in 10.0 mi WNW 5.8 mph - N/A   Overcast
5:55 PM 36.5 °F 31.8 °F 28.2 °F 72% 30.29 in 10.0 mi WNW 5.8 mph - N/A   Overcast
6:15 PM 36.5 °F 30.3 °F 28.0 °F 71% 30.29 in 10.0 mi WNW 8.1 mph - N/A   Overcast
6:35 PM 36.0 °F 30.3 °F 27.9 °F 72% 30.29 in 10.0 mi NW 6.9 mph - N/A   Overcast
6:55 PM 36.0 °F 33.3 °F 27.0 °F 70% 30.28 in 10.0 mi WNW 3.5 mph - N/A   Mostly Cloudy
7:15 PM 36.0 °F 32.1 °F 27.3 °F 71% 30.29 in 10.0 mi West 4.6 mph - N/A   Mostly Cloudy
7:35 PM 34.7 °F 30.6 °F 27.3 °F 74% 30.29 in 10.0 mi West 4.6 mph - N/A   Overcast
7:55 PM 35.6 °F 31.7 °F 27.5 °F 72% 30.28 in 10.0 mi WNW 4.6 mph - N/A   Overcast
8:15 PM 35.6 °F 32.8 °F 27.7 °F 73% 30.28 in 10.0 mi West 3.5 mph - N/A   Overcast
8:35 PM 34.9 °F - 28.0 °F 76% 30.28 in 10.0 mi Calm Calm - N/A   Overcast
8:55 PM 35.8 °F 33.0 °F 26.8 °F 70% 30.28 in 10.0 mi SW 3.5 mph - N/A   Overcast
9:15 PM 36.0 °F 33.3 °F 26.6 °F 69% 30.28 in 10.0 mi WSW 3.5 mph - N/A   Overcast
9:35 PM 35.1 °F 32.2 °F 27.0 °F 72% 30.29 in 10.0 mi WSW 3.5 mph - N/A   Overcast
9:55 PM 34.9 °F 30.8 °F 27.1 °F 73% 30.29 in 10.0 mi SW 4.6 mph - N/A   Overcast
10:15 PM 33.3 °F 27.9 °F 28.2 °F 82% 30.28 in 10.0 mi West 5.8 mph - N/A   Overcast
10:35 PM 33.1 °F 30.0 °F 28.2 °F 82% 30.28 in 10.0 mi WNW 3.5 mph - N/A   Overcast
10:55 PM 34.7 °F 28.8 °F 27.3 °F 74% 30.28 in 10.0 mi West 6.9 mph - N/A   Overcast
11:35 PM 34.7 °F 29.6 °F 27.3 °F 74% 30.27 in 10.0 mi West 5.8 mph - N/A   Overcast
11:55 PM 33.8 °F 27.7 °F 27.5 °F 78% 30.28 in 10.0 mi West 6.9 mph - N/A   Overcast